Вернуться в каталог

STARLINK-37963

АктивенСвязьSSO
NORAD 69709·PAYLOAD·🇺🇸 United States

Запущен Jun 28, 2026 с Vandenberg Space Force Base

Loading…

Ближайшие Пролёты (ближайшие 24 часа)

TLE

СвежийSource: CelesTrak SupGP

Эпоха: Sep 15, 2026, 03:48 UTC

1 69709C 26147F   26258.15881944 -.00060964  00000+0 -18928-2 0  2588
2 69709  97.2836 294.5520 0001092  97.7268 220.2921 15.33464427    14

Отслеживайте STARLINK-37963 в реальном времени с AllMySat

Download on the App Store